Дата Пункты Температура Давл., мм. Влажн., % Ветер Погодные явления
Воздуха Воды Направл. Скорость
01.01.19 02:00 Одесса 1.0 4.0 765 81 З 2 14 ГОДИН
01.01.19 11:00 Одесса 1.0 4.0 767 77 Пд 1 11 ГОДИН
01.01.19 05:00 Одесса -1.0 5.0 767 79 Пн 0 05 ГОДИН
01.01.19 02:00 Одесса -1.0 5.0 768 77 Пн 1 02 ГОДИНИ
31.12.18 02:00 Одесса 1.0 5.0 765 73 Пн 1 14 ГОДИН
31.12.18 11:00 Одесса 1.0 4.0 765 78 Пн 1 11 ГОДИН
30.12.18 08:00 Одесса 1.0 4.0 764 85 Пн 1 20 ГОДИН
30.12.18 05:00 Одесса 1.0 5.0 763 81 Пн 1 17 ГОДИН
30.12.18 02:00 Одесса 1.0 5.0 763 85 Пн 2 14 ГОДИН
30.12.18 11:00 Одесса 1.0 5.0 763 86 Пн 1 11 ГОДИН
30.12.18 08:00 Одесса 1.0 5.0 762 89 Пн 3 08 ГОДИН
30.12.18 05:00 Одесса 1.0 4.0 761 93 Пн 2 05 ГОДИН
30.12.18 02:00 Одесса 2.0 4.0 762 90 Пн 3 02 ГОДИНИ
29.12.18 11:00 Одесса 2.0 5.0 761 94 Пн 3 23 ГОДИНИ
29.12.18 08:00 Одесса 4.0 5.0 761 94 Пн 3 20 ГОДИН
29.12.18 05:00 Одесса 4.0 5.0 760 96 Пн-З 2 17 ГОДИН
29.12.18 02:00 Одесса 4.0 5.0 759 92 Пн-З 2 14 ГОДИН
29.12.18 11:00 Одесса 5.0 4.0 759 85 З 1 11 ГОДИН
29.12.18 08:00 Одесса 4.0 4.0 759 90 З 2 08 ГОДИН
29.12.18 05:00 Одесса 4.0 4.0 758 88 З 2 05 ГОДИН
Количество строк
1 2 3 4 5 6 7 8 9 10
Page 7 of 448